{"data":{"norad_id":65305,"intl_designator":"2025-187A","name":"HULIANWANG DIGUI-73","alt_names":[],"object_type":"PAYLOAD","status":"ACTIVE","operator":null,"country":"PRC","launch_date":"2025-08-25","launch_site_code":"WSC","launch_vehicle":null,"mission":null,"orbit_class":"UNKNOWN","rcs_meters":null,"size_class":null,"mass_kg":null,"dimensions":null,"purposes":[],"wikipedia_slug":null,"has_3d_model":false,"image_url":null,"decayed_at":null,"tle_current":{"epoch":"2026-05-25T03:10:34.356576Z","epoch_age_seconds":74311,"freshness":"FRESH","line1":"1 65305U 25187A   26145.13234209 -.00000099  00000+0  52982-4 0  9992","line2":"2 65305  50.0058 288.5638 0000610  96.8868 263.2074 13.29322543 36637","mean_motion":13.29322543,"eccentricity":6.1e-5,"inclination_deg":50.0058,"raan_deg":288.5638,"arg_perigee_deg":96.8868,"mean_anomaly_deg":263.2074,"bstar":5.2982e-5,"rev_number":3663,"period_min":108.32585421671,"perigee_km":1148.8604474373,"apogee_km":1149.7787971452,"semimajor_km":7527.4566222913,"source":"CELESTRAK","updated_at":"2026-05-25T13:38:05.298519Z"}}}